When you browse on this site, cookies collect data to enhance your experience and personalize the content and advertising you see.
Visit our Privacy Policy to learn more. By continuing to use the site, you agree to this use of cookies and data.
EN

Hourly Weather Kielczewek

Today, 27 September, Sunday

Time Temperature Precipitation Wind Pressure Humidity
00:00 +11°C° 0.7 mm 3 mps 739 mmHg 86%
01:00 +11°C° 0 mm 3 mps 739 mmHg 88%
02:00 +11°C° 1.3 mm 4 mps 739 mmHg 89%
03:00 +10°C° 1.3 mm 4 mps 739 mmHg 91%
04:00 +9°C° 1.3 mm 5 mps 739 mmHg 92%
05:00 +9°C° 3 mm 5 mps 739 mmHg 92%
06:00 +8°C° 3 mm 6 mps 739 mmHg 92%
07:00 +8°C° 3 mm 6 mps 739 mmHg 92%
08:00 +8°C° 0.8 mm 6 mps 740 mmHg 91%
09:00 +8°C° 0.8 mm 6 mps 740 mmHg 90%
10:00 +8°C° 0.8 mm 6 mps 741 mmHg 90%
11:00 +8°C° 0.3 mm 6 mps 741 mmHg 88%
12:00 +9°C° 0.3 mm 6 mps 742 mmHg 87%
13:00 +9°C° 0.3 mm 5 mps 743 mmHg 86%
14:00 +10°C° 0 mm 4 mps 744 mmHg 84%
15:00 +11°C° 0 mm 4 mps 744 mmHg 82%
16:00 +11°C° 0 mm 3 mps 745 mmHg 80%
17:00 +12°C° 0 mm 2 mps 746 mmHg 81%
18:00 +10°C° 0 mm 2 mps 746 mmHg 83%
19:00 +10°C° 0 mm 2 mps 747 mmHg 85%
20:00 +9°C° 0 mm 2 mps 747 mmHg 85%
21:00 +9°C° 0 mm 2 mps 748 mmHg 86%
22:00 +9°C° 0 mm 3 mps 749 mmHg 86%
23:00 +9°C° 0 mm 3 mps 749 mmHg 86%

Tomorrow, 28 September, Monday

Time Temperature Precipitation Wind Pressure Humidity
00:00 +9°C° 0 mm 2 mps 749 mmHg 86%
01:00 +9°C° 0 mm 2 mps 750 mmHg 86%
02:00 +8°C° 0 mm 2 mps 750 mmHg 86%
03:00 +8°C° 0 mm 2 mps 750 mmHg 86%
04:00 +8°C° 0 mm 2 mps 750 mmHg 87%
05:00 +8°C° 0 mm 2 mps 750 mmHg 85%
06:00 +9°C° 0 mm 2 mps 751 mmHg 84%
07:00 +9°C° 0 mm 2 mps 751 mmHg 82%
08:00 +11°C° 0 mm 3 mps 751 mmHg 75%
09:00 +13°C° 0 mm 3 mps 751 mmHg 68%
10:00 +16°C° 0 mm 3 mps 751 mmHg 61%
11:00 +17°C° 0 mm 3 mps 751 mmHg 57%
12:00 +18°C° 0 mm 3 mps 751 mmHg 53%
13:00 +19°C° 0 mm 4 mps 750 mmHg 49%
14:00 +18°C° 0 mm 4 mps 750 mmHg 53%
15:00 +18°C° 0 mm 3 mps 750 mmHg 56%
16:00 +17°C° 0 mm 3 mps 750 mmHg 59%
17:00 +16°C° 0 mm 3 mps 750 mmHg 64%
18:00 +14°C° 0 mm 3 mps 750 mmHg 69%
19:00 +13°C° 0 mm 3 mps 750 mmHg 73%
20:00 +12°C° 0 mm 3 mps 750 mmHg 75%
21:00 +12°C° 0 mm 3 mps 750 mmHg 76%
22:00 +11°C° 0 mm 3 mps 750 mmHg 77%
23:00 +11°C° 0 mm 3 mps 750 mmHg 77%

Day after tomorrow, 29 September, Tuesday

Time Temperature Precipitation Wind Pressure Humidity
00:00 +11°C° 0 mm 3 mps 750 mmHg 77%
01:00 +11°C° 0 mm 3 mps 750 mmHg 77%
02:00 +11°C° 0 mm 3 mps 750 mmHg 78%
03:00 +11°C° 0 mm 3 mps 750 mmHg 79%
04:00 +12°C° 0 mm 2 mps 750 mmHg 81%
05:00 +11°C° 0 mm 3 mps 750 mmHg 82%
06:00 +11°C° 0 mm 3 mps 750 mmHg 82%
07:00 +11°C° 0 mm 3 mps 750 mmHg 83%
08:00 +12°C° 0 mm 3 mps 750 mmHg 79%
09:00 +13°C° 0 mm 3 mps 751 mmHg 74%
10:00 +16°C° 0 mm 3 mps 751 mmHg 70%
11:00 +16°C° 0 mm 2 mps 751 mmHg 68%
12:00 +17°C° 0 mm 2 mps 751 mmHg 66%
13:00 +18°C° 0 mm 2 mps 751 mmHg 64%
14:00 +18°C° 0 mm 2 mps 751 mmHg 65%
15:00 +18°C° 0 mm 2 mps 751 mmHg 67%
16:00 +18°C° 0 mm 2 mps 751 mmHg 68%
17:00 +17°C° 0 mm 2 mps 751 mmHg 71%
18:00 +16°C° 0 mm 2 mps 751 mmHg 73%
19:00 +15°C° 0 mm 2 mps 751 mmHg 75%
20:00 +15°C° 0 mm 2 mps 751 mmHg 76%
21:00 +14°C° 0 mm 3 mps 751 mmHg 78%
22:00 +13°C° 0 mm 3 mps 751 mmHg 79%
23:00 +13°C° 0 mm 3 mps 751 mmHg 80%

30 September, Wednesday

Time Temperature Precipitation Wind Pressure Humidity
00:00 +13°C° 0 mm 3 mps 751 mmHg 81%
01:00 +13°C° 0 mm 3 mps 751 mmHg 82%
02:00 +12°C° 0 mm 3 mps 751 mmHg 84%
03:00 +12°C° 0 mm 3 mps 751 mmHg 85%
04:00 +12°C° 0 mm 3 mps 751 mmHg 86%
05:00 +12°C° 0 mm 3 mps 751 mmHg 86%
06:00 +12°C° 0 mm 3 mps 751 mmHg 86%
07:00 +12°C° 0 mm 3 mps 751 mmHg 85%
08:00 +13°C° 0 mm 3 mps 751 mmHg 81%
09:00 +14°C° 0 mm 3 mps 751 mmHg 76%
10:00 +16°C° 0 mm 3 mps 751 mmHg 72%
11:00 +17°C° 0 mm 3 mps 750 mmHg 69%
12:00 +18°C° 0 mm 4 mps 750 mmHg 66%
13:00 +19°C° 0 mm 4 mps 750 mmHg 63%
14:00 +19°C° 0 mm 4 mps 750 mmHg 65%
15:00 +19°C° 0 mm 4 mps 749 mmHg 66%
16:00 +18°C° 0 mm 4 mps 749 mmHg 68%
17:00 +17°C° 0 mm 4 mps 749 mmHg 72%
18:00 +15°C° 0 mm 4 mps 749 mmHg 77%
19:00 +14°C° 0 mm 4 mps 750 mmHg 81%
20:00 +14°C° 0 mm 4 mps 749 mmHg 84%
21:00 +13°C° 0 mm 4 mps 749 mmHg 86%
22:00 +13°C° 0 mm 3 mps 749 mmHg 89%
23:00 +12°C° 0 mm 3 mps 749 mmHg 91%

1 October, Thursday

Time Temperature Precipitation Wind Pressure Humidity
00:00 +12°C° 0 mm 3 mps 748 mmHg 93%
01:00 +11°C° 0 mm 3 mps 748 mmHg 95%
02:00 +11°C° 0 mm 3 mps 748 mmHg 94%
03:00 +11°C° 0 mm 3 mps 748 mmHg 94%
04:00 +11°C° 0 mm 3 mps 747 mmHg 94%
05:00 +12°C° 0 mm 3 mps 747 mmHg 92%
06:00 +13°C° 0 mm 2 mps 747 mmHg 91%
07:00 +13°C° 0 mm 2 mps 747 mmHg 90%
08:00 +14°C° 0 mm 2 mps 746 mmHg 82%
09:00 +14°C° 0 mm 3 mps 746 mmHg 73%
10:00 +16°C° 0 mm 3 mps 745 mmHg 65%
11:00 +16°C° 0 mm 3 mps 745 mmHg 62%
12:00 +17°C° 0 mm 3 mps 745 mmHg 58%
13:00 +18°C° 0 mm 3 mps 744 mmHg 55%
14:00 +18°C° 0 mm 3 mps 744 mmHg 56%
15:00 +18°C° 0 mm 3 mps 744 mmHg 58%
16:00 +18°C° 0 mm 3 mps 743 mmHg 59%
17:00 +16°C° 0 mm 3 mps 743 mmHg 64%
18:00 +14°C° 0 mm 3 mps 743 mmHg 69%
19:00 +13°C° 0 mm 3 mps 743 mmHg 73%
20:00 +12°C° 0 mm 3 mps 743 mmHg 74%
21:00 +12°C° 0 mm 3 mps 743 mmHg 74%
22:00 +11°C° 0 mm 3 mps 743 mmHg 74%
23:00 +13°C° 0 mm 2 mps 743 mmHg 74%

2 October, Friday

Time Temperature Precipitation Wind Pressure Humidity
00:00 +13°C° 0 mm 2 mps 743 mmHg 74%
01:00 +13°C° 0 mm 2 mps 743 mmHg 73%
02:00 +13°C° 0 mm 2 mps 742 mmHg 74%
03:00 +12°C° 0 mm 3 mps 742 mmHg 75%
04:00 +12°C° 0 mm 3 mps 742 mmHg 76%
05:00 +12°C° 0 mm 3 mps 742 mmHg 79%
06:00 +12°C° 0 mm 3 mps 742 mmHg 81%
07:00 +12°C° 0 mm 3 mps 743 mmHg 84%
08:00 +12°C° 0 mm 3 mps 743 mmHg 82%
09:00 +13°C° 0 mm 3 mps 743 mmHg 80%
10:00 +14°C° 0 mm 3 mps 743 mmHg 77%
11:00 +16°C° 0 mm 3 mps 742 mmHg 74%
12:00 +17°C° 0 mm 3 mps 742 mmHg 70%
13:00 +18°C° 0 mm 4 mps 742 mmHg 66%
14:00 +17°C° 0.3 mm 3 mps 742 mmHg 70%
15:00 +17°C° 0.3 mm 3 mps 742 mmHg 74%
16:00 +16°C° 0.3 mm 3 mps 742 mmHg 77%
17:00 +15°C° 0.2 mm 2 mps 742 mmHg 81%
18:00 +15°C° 0.2 mm 2 mps 742 mmHg 85%
19:00 +14°C° 0.2 mm 1 mps 742 mmHg 90%
20:00 +14°C° 0 mm 1 mps 742 mmHg 90%
21:00 +14°C° 0 mm 2 mps 742 mmHg 90%
22:00 +14°C° 0 mm 2 mps 742 mmHg 90%
23:00 +13°C° 0 mm 2 mps 742 mmHg 90%
Show more